Overview Statistics Trail Chart Weather Telemetry Raw packets
 

This is the latest recevied weather packets stored in our database for station/object XE3JAC-13. If no packets are shown the sender has not sent any weather packets the latest 10 day(s).

<< 12 13 14 15 16 17 18 >>
Time Temp. Humidity Pressure Rain* Wind** Luminosity Snow
1777157877 26.11° C 39% 1008 hPa 0 mm - - -
1777156976 27.78° C 33% 1008 hPa 0 mm - - -
1777156076 27.78° C 33% 1008 hPa 0 mm - - -
1777155175 27.78° C 33% 1008 hPa 0 mm - - -
1777154275 27.78° C 33% 1008 hPa 0 mm - - -
1777153375 27.78° C 34% 1008 hPa 0 mm - - -
1777152474 27.78° C 34% 1008 hPa 0 mm - - -
1777151574 27.78° C 35% 1008 hPa 0 mm - - -
1777150673 27.78° C 36% 1008 hPa 0 mm - - -
1777149773 27.78° C 37% 1008 hPa 0 mm - - -
1777148873 28.33° C 37% 1008 hPa 0 mm - - -
1777147972 27.78° C 38% 1008 hPa 0 mm - - -
1777147072 27.78° C 37% 1008 hPa 0 mm - - -
1777146172 27.78° C 39% 1009 hPa 0 mm - - -
1777145271 27.22° C 40% 1010 hPa 0 mm - - -
1777144371 27.22° C 39% 1010 hPa 0 mm - - -
1777143470 27.22° C 39% 1010 hPa 0 mm - - -
1777142570 27.22° C 39% 1010 hPa 0 mm - - -
1777141669 26.67° C 42% 1012 hPa 0 mm - - -
1777140769 26.67° C 42% 1012 hPa 0 mm - - -
1777139869 25.56° C 46% 1012 hPa 0 mm - - -
1777138968 23.89° C 54% 1012 hPa 0 mm - - -
1777138068 23.89° C 54% 1013 hPa 0 mm - - -
1777137168 23.89° C 54% 1013 hPa 0 mm - - -
1777136267 23.33° C 56% 1013 hPa 0 mm - - -

* Rain latest hour (hover to see other rain measurements)
** Current wind speed in m/s (hover to see current wind gust speed)